모두
Young Airport (Young, New South Wales) NGA 기상
|
Young, New South Wales (NGA / YYNG)
맑은 하늘
가벼운 바람 |
|
14 °C |
NGA 터미널 지역 예측
| Date | Time (AEST) | Flight Rules | Wind Dir. | Speed | Type | Height AGL (ft) | Visibility | Remarks | ||||||
|---|---|---|---|---|---|---|---|---|---|---|---|---|---|---|
| 10-5월 | 23:00 | VFR | 130° | 6 kt | Clouds and Visibility are OK | >= 6 miles | ||||||||
최근 NGA METAR 이력
| Date | Time (AEST) | Flight Rules | Wind Dir. | Speed | Type | Height AGL (ft) | Visibility | Temp (°C) | Temp (°F) | Dew Point (°C) | Dew Point (°F) | Rel. Humid. | Pressure | Density Altitude | Remarks |
|---|---|---|---|---|---|---|---|---|---|---|---|---|---|---|---|
| 10-5월 | 23:00 | VFR | 130° | 9 kt | 10000 meters | 14° | 57° | 10° | 50° | 77% | 1030 mb | 889 ft | |||
| 10-5월 | 22:00 | VFR | 190° | 6 kt | 10000 meters | 12° | 53° | 10° | 50° | 88% | 1030 mb | 649 ft | |||
| 10-5월 | 21:00 | VFR | 170° | 4 kt | 10000 meters | 9° | 48° | 7° | 44° | 87% | 1030 mb | 289 ft | |||
| 10-5월 | 20:00 | VFR | 130° | 4 kt | 10000 meters | 10° | 50° | 8° | 46° | 87% | 1029 mb | 438 ft | |||
| 10-5월 | 19:00 | VFR | 130° | 4 kt | 10000 meters | 11° | 51° | 8° | 46° | 82% | 1029 mb | 558 ft | |||
| 10-5월 | 18:00 | VFR | 130° | 3 kt | 10000 meters | 12° | 53° | 8° | 46° | 76% | 1028 mb | 708 ft | |||
| 10-5월 | 17:00 | VFR | 130° | 2 kt | 10000 meters | 19° | 66° | 8° | 46° | 49% | 1027 mb | 1,577 ft | |||
| 10-5월 | 16:00 | VFR | 140° | 4 kt | 10000 meters | 21° | 69° | 9° | 48° | 46% | 1027 mb | 1,817 ft | |||
| 10-5월 | 15:00 | VFR | 90° | 3 kt | 10000 meters | 22° | 71° | 7° | 44° | 38% | 1027 mb | 1,937 ft | |||
| 10-5월 | 14:00 | VFR | 90° | 5 kt | 10000 meters | 21° | 69° | 7° | 44° | 40% | 1027 mb | 1,817 ft | |||
| 10-5월 | 13:00 | VFR | 100° | 6 kt | 10000 meters | 20° | 68° | 8° | 46° | 46% | 1027 mb | 1,697 ft | |||
| 10-5월 | 12:00 | VFR | 80° | 7 kt | 10000 meters | 20° | 68° | 9° | 48° | 49% | 1028 mb | 1,668 ft | |||
| 10-5월 | 11:00 | VFR | 100° | 7 kt | 10000 meters | 18° | 64° | 9° | 48° | 56% | 1029 mb | 1,398 ft | |||
| 10-5월 | 10:00 | VFR | 100° | 5 kt | 10000 meters | 16° | 60° | 9° | 48° | 63% | 1029 mb | 1,158 ft | |||
| 10-5월 | 09:00 | VFR | 200° | 5 kt | 10000 meters | 12° | 53° | 10° | 50° | 88% | 1029 mb | 678 ft | |||
| 10-5월 | 08:00 | VFR | 210° | 5 kt | 10000 meters | 7° | 44° | 7° | 44° | 100% | 1028 mb | 108 ft | |||
| 10-5월 | 07:00 | VFR | 190° | 4 kt | 10000 meters | 3° | 37° | 2° | 35° | 93% | 1028 mb | -372 ft | |||
| 10-5월 | 06:00 | VFR | 190° | 3 kt | 10000 meters | 2° | 35° | 2° | 35° | 100% | 1027 mb | -463 ft | |||
| 10-5월 | 05:00 | VFR | 190° | 5 kt | 10000 meters | 2° | 35° | 1° | 33° | 93% | 1027 mb | -463 ft | |||
| 10-5월 | 04:00 | VFR | Calm | 10000 meters | 3° | 37° | 2° | 35° | 93% | 1026 mb | -313 ft | ||||
| 10-5월 | 03:00 | VFR | Calm | 10000 meters | 3° | 37° | 2° | 35° | 93% | 1026 mb | -313 ft | ||||
| 10-5월 | 02:00 | VFR | 190° | 4 kt | 10000 meters | 3° | 37° | 2° | 35° | 93% | 1026 mb | -313 ft | |||
| 10-5월 | 01:00 | VFR | 170° | 4 kt | 10000 meters | 4° | 39° | 3° | 37° | 93% | 1026 mb | -193 ft | |||
| 10-5월 | 00:00 | VFR | 170° | 4 kt | 10000 meters | 4° | 39° | 3° | 37° | 93% | 1026 mb | -193 ft |
로그인
| 귀하의 브라우저는 지원되지 않습니다.. 브라우저를 업그레이드하세요 |
